Tracking 29040 objects as of 17-Jun-2024
HD Live streaming from Space Station
objects crossing your sky now

LEMUR 2 HANCOM-1

Track LEMUR 2 HANCOM-1 now!
10-day predictions
LEMUR 2 HANCOM-1 is classified as:


NORAD ID: 52740
Int'l Code: 2022-057J
Perigee: 350.8 km
Apogee: 354.4 km
Inclination: 97.6 °
Period: 91.4 minutes
Semi major axis: 6723 km
RCS: Unknown
Launch date: May 25, 2022
Source: United States (US)
Launch site: AIR FORCE EASTERN TEST RANGE (AFETR)
Your satellite tracking list
Your tracking list is empty




NASA's NSSDC Master Catalog

Two Line Element Set (TLE):
1 52740U 22057J   24168.35508481  .00232511  00000-0  15500-2 0  9996
2 52740  97.5750 303.3897 0002652 245.1546 114.9442 15.74696888114922
Source of the keplerian elements: AFSPC